Regional Weather Roundup
Issued by NWS

Home | Current Version | Previous Version | Text Only | Print | Product List | Glossary Off
Versions: 1 2 3 4 5 6 7 8 9 10 11 12 13 14 15 16 17 18 19 20 21 22 23 24 25 26 27 28 29 30 31 32 33 34 35 36 37 38 39 40 41 42 43 44 45 46 47 48 49 50

000
ASUS45 KBOI 260210
RWRID
WEATHER ROUNDUP FOR IDAHO
NATIONAL WEATHER SERVICE BOISE ID
800 PM MDT SAT APR 25 2015

NOTE: "FAIR" INDICATES FEW OR NO CLOUDS BELOW 12000 FEET
WITH NO SIGNIFICANT WEATHER AND/OR OBSTRUCTIONS TO VISIBILITY

IDZ012-014-260300-
SOUTHWEST IDAHO


CITY           SKY/WX    TMP DP  RH WIND       PRES   REMARKS
BOISE          MOCLDY    53  30  41 W20G25    29.81R
CALDWELL       MOCLDY    52  28  40 W21G30    29.86R
MOUNTAIN HOME  MOCLDY    55  29  36 NW24G31   29.78R
$$

IDZ016-017-260300-
SOUTHCENTRAL IDAHO


CITY           SKY/WX    TMP DP  RH WIND       PRES   REMARKS
BURLEY         CLOUDY    45  33  63 W15G23    29.77R
JEROME         CLOUDY    44  32  62 W12       29.81R
TWIN FALLS     LGT RAIN  44  33  65 W14G23    29.81R
$$

IDZ019>023-260300-
SOUTHEAST IDAHO


CITY           SKY/WX    TMP DP  RH WIND       PRES   REMARKS
IDAHO FALLS    CLOUDY    52  30  43 NE7       29.72S
POCATELLO      CLOUDY    51  34  52 SW7       29.73S
REXBURG        CLOUDY    49  28  44 NE7       29.73S
$$

IDZ006-010-011-018-031-032-260300-
CENTRAL IDAHO MOUNTAINS


CITY           SKY/WX    TMP DP  RH WIND       PRES   REMARKS
MCCALL         MOCLDY    38  30  73 N12G18    29.82R WCI  30
HAILEY         LGT RAIN  41  36  81 SW9       29.79R
STANLEY          N/A     38  24  57 NW7       29.80R WCI  33
SALMON         CLOUDY    46  30  53 S10       29.76R
CHALLIS        LGT RAIN  39  35  86 S7        29.78R WCI  34
$$

IDZ002-004-006-007-026-260300-
NORTHERN IDAHO


CITY           SKY/WX    TMP DP  RH WIND       PRES   REMARKS
LEWISTON       CLOUDY    52  37  56 S8        29.91R
LOWELL           N/A     48  40  73 CALM      29.92R
COEUR D`ALENE  CLOUDY    43  36  75 N7        29.93S
MULLAN PASS    CLOUDY    28  27  96 NW7       29.85R FOG     WCI  21
$$


USA.gov is the U.S. government's official web portal to all federal, state and local government web resources and services.